Miscellaneous Local Product
Issued by NWS Hastings, NE

Home | Current Version | Previous Version | Graphics & Text | Print | Product List | Glossary On
Versions: 1 2 3 4 5 6 7 8 9 10 11 12 13 14 15 16 17 18 19 20 21 22 23 24 25 26 27 28 29 30 31 32 33 34 35 36 37 38 39 40 41 42 43 44 45 46 47 48 49 50
000
AXUS43 KGID 071502
MISGRI

GID CWA HOURLY WEATHER ROUNDUP
NATIONAL WEATHER SERVICE HASTINGS NE
900 AM CST WED DEC 07 2016

NOTE: "FAIR" INDICATES FEW OR NO CLOUDS BELOW 12,000 FEET WITH NO
SIGNIFICANT WEATHER AND/OR OBSTRUCTIONS TO VISIBILITY.

...SOUTH CENTRAL NEBRASKA...

CITY           SKY/WX    TMP DP  RH WIND       PRES   REMARKS
GRAND ISLAND   NOT AVBL
HASTINGS       NOT AVBL
KEARNEY        CLOUDY    16   1  53 N12       30.29R WCI   3
ORD            NOT AVBL
YORK           CLOUDY    16   7  67 NW13      30.28R WCI   2
AURORA         CLOUDY    16   4  60 NW13      30.28R WCI   2
LEXINGTON      CLOUDY    15   5  62 N9        30.28R WCI   4
HOLDREGE       CLOUDY    15   6  66 N12       30.28R WCI   2
HEBRON         CLOUDY    19   9  63 NW12      30.30R WCI   7

...NEBRASKA PANHANDLE...

CITY           SKY/WX    TMP DP  RH WIND       PRES   REMARKS
CHADRON        NOT AVBL
ALLIANCE       NOT AVBL
SCOTTSBLUFF    LGT SNOW   6   0  76 NW12      30.24R WCI  -9
SIDNEY         LGT SNOW  10   5  79 N9        30.19R WCI  -2

...WESTERN AND NORTH CENTRAL NEBRASKA...

CITY           SKY/WX    TMP DP  RH WIND       PRES   REMARKS
VALENTINE      NOT AVBL
AINSWORTH      CLOUDY     8  -1  66 NW17G24   30.26R WCI -11
ONEILL         CLOUDY    10   1  66 NW18G26   30.26S WCI  -8
BROKEN BOW     NOT AVBL
NORTH PLATTE   NOT AVBL
MCCOOK         NOT AVBL

...EASTERN NEBRASKA...

CITY           SKY/WX    TMP DP  RH WIND       PRES   REMARKS
NORFOLK        NOT AVBL
COLUMBUS       MOSUNNY   16   3  57 NW13      30.27R WCI   2
ALBION         CLOUDY    13   3  62 NW17      30.27R WCI  -3
OMAHA EPPLEY   NOT AVBL
MILLARD        CLOUDY    18   7  62 NW6       30.28R WCI  10
LINCOLN        NOT AVBL
NEBRASKA CITY  MOSUNNY   19   6  57 N10       30.27R WCI   7
BEATRICE       CLOUDY    20  10  64 NW9       30.28R WCI   9
FALLS CITY     NOT AVBL

...NORTHERN KANSAS...

CITY           SKY/WX    TMP DP  RH WIND       PRES   REMARKS
GOODLAND       LGT SNOW  14  10  85 NE17      30.18R VSB 3/4 WCI  -3
HILL CITY      NOT AVBL
NORTON         LGT SNOW  16  10  79 N13       30.28R WCI   2
PHILLIPSBURG   LGT SNOW  18  14  86 N9        30.32R WCI   6
SMITH CENTER   LGT SNOW  16  12  86 N13       30.32R WCI   2
BELOIT         CLOUDY    19  12  73 N13       30.32R WCI   7
RUSSELL        NOT AVBL
CONCORDIA      NOT AVBL



USA.gov is the U.S. government's official web portal to all federal, state and local government web resources and services.